Time,TemperatureF,DewpointF,PressureIn,WindDirection,WindDirectionDegrees,WindSpeedMPH,WindSpeedGustMPH,Humidity,HourlyPrecipIn,Conditions,Clouds,dailyrainin,SoftwareType,DateUTC
2013-04-27 00:02:00,50.0,46.0,30.06,South,173,0.0,2.0,86,0.00,,,0.00,,2013-04-27 05:02:00,
2013-04-27 00:12:00,50.0,46.0,30.06,South,173,0.0,2.0,86,0.00,,,0.00,,2013-04-27 05:12:00,
2013-04-27 00:22:00,50.0,46.0,30.06,South,173,0.0,2.0,86,0.00,,,0.00,,2013-04-27 05:22:00,
2013-04-27 00:32:00,49.0,46.0,30.07,South,173,0.0,0.0,88,0.00,,,0.00,,2013-04-27 05:32:00,
2013-04-27 00:42:00,49.0,46.0,30.07,South,173,0.0,0.0,88,0.00,,,0.00,,2013-04-27 05:42:00,
2013-04-27 00:52:00,49.0,46.0,30.07,South,173,0.0,0.0,88,0.00,,,0.00,,2013-04-27 05:52:00,
2013-04-27 01:02:00,49.0,46.0,30.07,South,173,0.0,0.0,88,0.00,,,0.00,,2013-04-27 06:02:00,
2013-04-27 01:12:00,49.0,46.0,30.07,South,173,0.0,0.0,88,0.00,,,0.00,,2013-04-27 06:12:00,
2013-04-27 01:22:00,47.0,44.0,30.07,South,173,0.0,0.0,90,0.00,,,0.00,,2013-04-27 06:22:00,
2013-04-27 01:32:00,47.0,44.0,30.07,South,173,0.0,0.0,90,0.00,,,0.00,,2013-04-27 06:32:00,
2013-04-27 01:42:00,47.0,44.0,30.07,South,173,0.0,0.0,90,0.00,,,0.00,,2013-04-27 06:42:00,
2013-04-27 01:52:00,47.0,45.0,30.08,South,173,0.0,0.0,92,0.00,,,0.00,,2013-04-27 06:52:00,
2013-04-27 02:01:00,47.0,45.0,30.08,South,173,0.0,0.0,92,0.00,,,0.00,,2013-04-27 07:01:00,
2013-04-27 02:11:00,47.0,45.0,30.08,South,173,0.0,0.0,92,0.00,,,0.00,,2013-04-27 07:11:00,
2013-04-27 02:21:00,47.0,45.0,30.08,South,173,0.0,0.0,93,0.00,,,0.00,,2013-04-27 07:21:00,
2013-04-27 02:32:00,47.0,45.0,30.08,South,173,0.0,0.0,93,0.00,,,0.00,,2013-04-27 07:32:00,
2013-04-27 02:42:00,47.0,45.0,30.08,South,173,0.0,0.0,93,0.00,,,0.00,,2013-04-27 07:42:00,
2013-04-27 02:52:00,48.0,46.0,30.06,South,173,0.0,0.0,93,0.00,,,0.00,,2013-04-27 07:52:00,
2013-04-27 03:01:00,48.0,46.0,30.06,South,173,0.0,0.0,93,0.00,,,0.00,,2013-04-27 08:01:00,
2013-04-27 03:11:00,48.0,46.0,30.06,South,173,0.0,0.0,93,0.00,,,0.00,,2013-04-27 08:11:00,
2013-04-27 03:21:00,47.0,45.0,30.05,South,173,0.0,0.0,92,0.00,,,0.00,,2013-04-27 08:21:00,
2013-04-27 03:33:00,47.0,45.0,30.05,South,173,0.0,0.0,92,0.00,,,0.00,,2013-04-27 08:33:00,
2013-04-27 03:42:00,47.0,45.0,30.05,South,173,0.0,0.0,92,0.00,,,0.00,,2013-04-27 08:42:00,
2013-04-27 03:52:00,46.0,44.0,30.03,South,173,0.0,1.0,93,0.00,,,0.00,,2013-04-27 08:52:00,
2013-04-27 04:01:00,46.0,44.0,30.03,South,173,0.0,1.0,93,0.00,,,0.00,,2013-04-27 09:01:00,
2013-04-27 04:11:00,46.0,44.0,30.03,South,173,0.0,1.0,93,0.00,,,0.00,,2013-04-27 09:11:00,
2013-04-27 04:21:00,45.0,43.0,30.02,South,173,0.0,1.0,94,0.00,,,0.00,,2013-04-27 09:21:00,
2013-04-27 04:33:00,45.0,43.0,30.02,South,173,0.0,1.0,94,0.00,,,0.00,,2013-04-27 09:33:00,
2013-04-27 04:43:00,45.0,43.0,30.02,South,173,0.0,1.0,94,0.00,,,0.00,,2013-04-27 09:43:00,
2013-04-27 04:53:00,45.0,43.0,30.02,South,173,0.0,0.0,94,0.00,,,0.00,,2013-04-27 09:53:00,
2013-04-27 05:02:00,45.0,44.0,30.02,South,173,0.0,0.0,95,0.00,,,0.00,,2013-04-27 10:02:00,
2013-04-27 05:12:00,45.0,44.0,30.02,South,173,0.0,0.0,95,0.00,,,0.00,,2013-04-27 10:12:00,
2013-04-27 05:22:00,45.0,44.0,30.01,South,173,0.0,0.0,95,0.00,,,0.00,,2013-04-27 10:22:00,
2013-04-27 05:32:00,45.0,44.0,30.01,South,173,0.0,0.0,95,0.00,,,0.00,,2013-04-27 10:32:00,
2013-04-27 05:42:00,45.0,44.0,30.01,South,173,0.0,0.0,95,0.00,,,0.00,,2013-04-27 10:42:00,
2013-04-27 05:52:00,44.0,43.0,30.01,South,173,0.0,0.0,95,0.00,,,0.00,,2013-04-27 10:52:00,
2013-04-27 06:02:00,44.0,43.0,30.01,South,173,0.0,0.0,96,0.00,,,0.00,,2013-04-27 11:02:00,
2013-04-27 06:12:00,44.0,43.0,30.01,South,173,0.0,0.0,96,0.00,,,0.00,,2013-04-27 11:12:00,
2013-04-27 06:22:00,44.0,43.0,30.01,South,173,0.0,0.0,96,0.00,,,0.00,,2013-04-27 11:22:00,
2013-04-27 06:32:00,45.0,44.0,30.02,South,173,0.0,0.0,96,0.00,,,0.00,,2013-04-27 11:32:00,
2013-04-27 06:41:00,45.0,44.0,30.02,South,173,0.0,0.0,96,0.00,,,0.00,,2013-04-27 11:41:00,
2013-04-27 06:52:00,46.0,45.0,30.02,South,173,0.0,2.0,97,0.00,,,0.00,,2013-04-27 11:52:00,
2013-04-27 07:01:00,47.0,46.0,30.03,South,173,0.0,1.0,97,0.00,,,0.00,,2013-04-27 12:01:00,
2013-04-27 07:11:00,47.0,46.0,30.03,South,173,0.0,1.0,97,0.00,,,0.00,,2013-04-27 12:11:00,
2013-04-27 07:22:00,47.0,46.0,30.03,South,173,0.0,1.0,97,0.00,,,0.00,,2013-04-27 12:22:00,
2013-04-27 07:32:00,48.0,47.0,30.03,South,173,0.0,0.0,97,0.00,,,0.00,,2013-04-27 12:32:00,
2013-04-27 07:42:00,48.0,47.0,30.03,South,173,0.0,0.0,97,0.00,,,0.00,,2013-04-27 12:42:00,
2013-04-27 07:52:00,49.0,48.0,30.03,South,173,0.0,2.0,97,0.00,,,0.00,,2013-04-27 12:52:00,
2013-04-27 08:02:00,49.0,48.0,30.04,South,173,0.0,0.0,97,0.00,,,0.00,,2013-04-27 13:02:00,
2013-04-27 08:11:00,49.0,48.0,30.04,South,173,0.0,0.0,97,0.00,,,0.00,,2013-04-27 13:11:00,
2013-04-27 08:21:00,49.0,48.0,30.04,South,173,0.0,0.0,97,0.00,,,0.00,,2013-04-27 13:21:00,
2013-04-27 08:32:00,50.0,49.0,30.04,South,173,0.0,1.0,96,0.00,,,0.00,,2013-04-27 13:32:00,
2013-04-27 08:42:00,50.0,49.0,30.04,South,173,0.0,1.0,96,0.00,,,0.00,,2013-04-27 13:42:00,
2013-04-27 08:52:00,50.0,49.0,30.04,South,173,0.0,0.0,96,0.00,,,0.00,,2013-04-27 13:52:00,
2013-04-27 09:02:00,51.0,50.0,30.03,South,173,0.0,1.0,95,0.00,,,0.00,,2013-04-27 14:02:00,
2013-04-27 09:11:00,51.0,50.0,30.03,South,173,0.0,1.0,95,0.00,,,0.00,,2013-04-27 14:11:00,
2013-04-27 09:21:00,51.0,49.0,30.03,South,173,0.0,1.0,94,0.00,,,0.00,,2013-04-27 14:21:00,
2013-04-27 09:32:00,51.0,48.0,30.03,South,173,0.0,1.0,90,0.00,,,0.00,,2013-04-27 14:32:00,
2013-04-27 09:42:00,51.0,48.0,30.03,South,173,0.0,1.0,90,0.00,,,0.00,,2013-04-27 14:42:00,
2013-04-27 09:52:00,51.0,48.0,30.03,South,174,1.0,2.0,89,0.00,,,0.00,,2013-04-27 14:52:00,
2013-04-27 10:01:00,51.0,48.0,30.03,South,174,1.0,2.0,89,0.00,,,0.00,,2013-04-27 15:01:00,
2013-04-27 10:12:00,51.0,48.0,30.03,South,174,1.0,2.0,89,0.00,,,0.00,,2013-04-27 15:12:00,
2013-04-27 10:22:00,52.0,48.0,30.03,South,184,1.0,4.0,86,0.00,,,0.00,,2013-04-27 15:22:00,
2013-04-27 10:33:00,53.0,48.0,30.03,SSW,200,0.0,5.0,84,0.00,,,0.00,,2013-04-27 15:33:00,
2013-04-27 10:40:00,53.0,48.0,30.02,SSW,198,0.0,4.0,83,0.00,,,0.00,,2013-04-27 15:40:00,
2013-04-27 10:42:00,53.0,48.0,30.03,SSW,200,0.0,5.0,84,0.00,,,0.00,,2013-04-27 15:42:00,
2013-04-27 10:52:00,53.0,48.0,30.03,SSW,200,0.0,5.0,84,0.00,,,0.00,,2013-04-27 15:52:00,
2013-04-27 11:03:00,53.0,48.0,30.02,SSW,198,0.0,4.0,83,0.00,,,0.00,,2013-04-27 16:03:00,
2013-04-27 11:13:00,53.0,48.0,30.02,SSW,198,0.0,4.0,83,0.00,,,0.00,,2013-04-27 16:13:00,
2013-04-27 11:22:00,53.0,48.0,30.02,SSW,198,0.0,4.0,83,0.00,,,0.00,,2013-04-27 16:22:00,
2013-04-27 11:32:00,53.0,48.0,30.02,SSW,198,0.0,4.0,83,0.00,,,0.00,,2013-04-27 16:32:00,
2013-04-27 11:53:00,55.0,48.0,30.03,South,181,0.0,3.0,77,0.00,,,0.00,,2013-04-27 16:53:00,
2013-04-27 12:02:00,56.0,49.0,30.03,South,180,0.0,2.0,76,0.00,,,0.00,,2013-04-27 17:02:00,
2013-04-27 12:12:00,56.0,49.0,30.03,South,180,0.0,2.0,76,0.00,,,0.00,,2013-04-27 17:12:00,
2013-04-27 12:22:00,57.0,48.0,30.02,South,181,0.0,4.0,73,0.00,,,0.00,,2013-04-27 17:22:00,
2013-04-27 12:31:00,57.0,48.0,30.01,South,182,0.0,3.0,71,0.00,,,0.00,,2013-04-27 17:31:00,
2013-04-27 12:32:00,57.0,48.0,30.02,South,181,0.0,4.0,73,0.00,,,0.00,,2013-04-27 17:32:00,
2013-04-27 12:42:00,57.0,48.0,30.02,South,181,0.0,4.0,73,0.00,,,0.00,,2013-04-27 17:42:00,
2013-04-27 12:53:00,57.0,48.0,30.01,South,182,0.0,3.0,71,0.00,,,0.00,,2013-04-27 17:53:00,
2013-04-27 13:02:00,57.0,48.0,30.01,South,182,0.0,3.0,71,0.00,,,0.00,,2013-04-27 18:02:00,
2013-04-27 13:12:00,57.0,48.0,30.01,South,182,0.0,3.0,71,0.00,,,0.00,,2013-04-27 18:12:00,
2013-04-27 13:22:00,57.0,48.0,30.01,South,182,0.0,3.0,71,0.00,,,0.00,,2013-04-27 18:22:00,
2013-04-27 13:52:00,61.0,49.0,29.99,WSW,242,1.0,6.0,65,0.00,,,0.00,,2013-04-27 18:52:00,
2013-04-27 14:02:00,62.0,49.0,29.98,South,178,0.0,0.0,63,0.00,,,0.00,,2013-04-27 19:02:00,
2013-04-27 14:11:00,62.0,49.0,29.98,South,178,0.0,0.0,63,0.00,,,0.00,,2013-04-27 19:11:00,
2013-04-27 14:21:00,63.0,48.0,29.97,South,191,0.0,4.0,59,0.00,,,0.00,,2013-04-27 19:21:00,
2013-04-27 14:32:00,64.0,48.0,29.96,South,190,1.0,0.0,57,0.00,,,0.00,,2013-04-27 19:32:00,
2013-04-27 14:42:00,64.0,48.0,29.96,South,190,1.0,0.0,57,0.00,,,0.00,,2013-04-27 19:42:00,
2013-04-27 14:52:00,63.0,48.0,29.95,SE,140,0.0,5.0,57,0.00,,,0.00,,2013-04-27 19:52:00,
2013-04-27 15:02:00,63.0,48.0,29.95,SE,140,0.0,5.0,57,0.00,,,0.00,,2013-04-27 20:02:00,
2013-04-27 15:11:00,63.0,48.0,29.95,SE,140,0.0,5.0,57,0.00,,,0.00,,2013-04-27 20:11:00,
2013-04-27 15:21:00,63.0,48.0,29.95,SE,140,0.0,5.0,57,0.00,,,0.00,,2013-04-27 20:21:00,
2013-04-27 15:32:00,65.0,48.0,29.94,South,173,1.0,6.0,54,0.00,,,0.00,,2013-04-27 20:32:00,
2013-04-27 15:42:00,65.0,48.0,29.94,South,173,1.0,6.0,54,0.00,,,0.00,,2013-04-27 20:42:00,
2013-04-27 15:52:00,67.0,49.0,29.93,SSE,165,1.0,5.0,53,0.00,,,0.00,,2013-04-27 20:52:00,
2013-04-27 16:02:00,67.0,49.0,29.91,ENE,72,1.0,9.0,53,0.00,,,0.00,,2013-04-27 21:02:00,
2013-04-27 16:11:00,67.0,49.0,29.91,ENE,72,1.0,9.0,53,0.00,,,0.00,,2013-04-27 21:11:00,
2013-04-27 16:21:00,66.0,48.0,29.91,South,173,0.0,9.0,53,0.00,,,0.00,,2013-04-27 21:21:00,
2013-04-27 16:33:00,66.0,48.0,29.90,East,82,1.0,6.0,52,0.00,,,0.00,,2013-04-27 21:33:00,
2013-04-27 16:42:00,66.0,48.0,29.90,East,82,1.0,6.0,52,0.00,,,0.00,,2013-04-27 21:42:00,
2013-04-27 16:53:00,66.0,48.0,29.90,East,82,1.0,6.0,52,0.00,,,0.00,,2013-04-27 21:53:00,
2013-04-27 17:02:00,67.0,47.0,29.88,ESE,117,1.0,10.0,49,0.00,,,0.00,,2013-04-27 22:02:00,
2013-04-27 17:12:00,67.0,47.0,29.88,ESE,117,1.0,10.0,49,0.00,,,0.00,,2013-04-27 22:12:00,
2013-04-27 17:22:00,67.0,47.0,29.88,ESE,117,1.0,10.0,49,0.00,,,0.00,,2013-04-27 22:22:00,
2013-04-27 17:32:00,68.0,46.0,29.88,South,178,0.0,8.0,46,0.00,,,0.00,,2013-04-27 22:32:00,
2013-04-27 17:42:00,68.0,46.0,29.88,South,178,0.0,8.0,46,0.00,,,0.00,,2013-04-27 22:42:00,
2013-04-27 17:53:00,69.0,48.0,29.88,South,175,0.0,8.0,47,0.00,,,0.00,,2013-04-27 22:53:00,
2013-04-27 18:02:00,69.0,48.0,29.87,SSW,195,0.0,6.0,47,0.00,,,0.00,,2013-04-27 23:02:00,
2013-04-27 18:11:00,69.0,48.0,29.87,SSW,195,0.0,6.0,47,0.00,,,0.00,,2013-04-27 23:11:00,
2013-04-27 18:22:00,68.0,48.0,29.86,SSE,155,0.0,5.0,48,0.00,,,0.00,,2013-04-27 23:22:00,
2013-04-27 18:32:00,69.0,47.0,29.86,SSE,165,0.0,5.0,46,0.00,,,0.00,,2013-04-27 23:32:00,
2013-04-27 18:42:00,69.0,47.0,29.86,SSE,165,0.0,5.0,46,0.00,,,0.00,,2013-04-27 23:42:00,
2013-04-27 18:52:00,68.0,47.0,29.85,South,169,0.0,4.0,47,0.00,,,0.00,,2013-04-27 23:52:00,
2013-04-27 19:01:00,68.0,47.0,29.85,South,180,1.0,6.0,47,0.00,,,0.00,,2013-04-28 00:01:00,
2013-04-27 19:11:00,68.0,47.0,29.85,South,180,1.0,6.0,47,0.00,,,0.00,,2013-04-28 00:11:00,
2013-04-27 19:21:00,68.0,47.0,29.85,South,180,1.0,6.0,47,0.00,,,0.00,,2013-04-28 00:21:00,
2013-04-27 19:32:00,65.0,46.0,29.85,South,173,0.0,3.0,51,0.00,,,0.00,,2013-04-28 00:32:00,
2013-04-27 19:43:00,65.0,46.0,29.85,South,173,0.0,3.0,51,0.00,,,0.00,,2013-04-28 00:43:00,
2013-04-27 19:52:00,65.0,46.0,29.85,South,171,0.0,3.0,51,0.00,,,0.00,,2013-04-28 00:52:00,
2013-04-27 20:01:00,63.0,46.0,29.84,South,171,0.0,3.0,53,0.00,,,0.00,,2013-04-28 01:01:00,
2013-04-27 20:11:00,63.0,46.0,29.84,South,171,0.0,3.0,53,0.00,,,0.00,,2013-04-28 01:11:00,
2013-04-27 20:21:00,63.0,46.0,29.84,South,170,0.0,3.0,54,0.00,,,0.00,,2013-04-28 01:21:00,
2013-04-27 20:32:00,62.0,46.0,29.84,South,170,0.0,1.0,56,0.00,,,0.00,,2013-04-28 01:32:00,
2013-04-27 20:42:00,62.0,46.0,29.84,South,170,0.0,1.0,56,0.00,,,0.00,,2013-04-28 01:42:00,
2013-04-27 20:52:00,61.0,47.0,29.83,South,170,0.0,0.0,59,0.00,,,0.00,,2013-04-28 01:52:00,
2013-04-27 21:02:00,60.0,46.0,29.83,South,170,0.0,0.0,60,0.00,,,0.00,,2013-04-28 02:02:00,
2013-04-27 21:12:00,60.0,46.0,29.83,South,170,0.0,0.0,60,0.00,,,0.00,,2013-04-28 02:12:00,
2013-04-27 21:22:00,59.0,47.0,29.83,South,170,0.0,0.0,64,0.00,,,0.00,,2013-04-28 02:22:00,
2013-04-27 21:32:00,59.0,47.0,29.83,South,170,0.0,0.0,64,0.00,,,0.00,,2013-04-28 02:32:00,
2013-04-27 21:42:00,59.0,47.0,29.83,South,170,0.0,0.0,64,0.00,,,0.00,,2013-04-28 02:42:00,
2013-04-27 21:52:00,58.0,47.0,29.83,South,170,0.0,0.0,66,0.00,,,0.00,,2013-04-28 02:52:00,
2013-04-27 22:01:00,57.0,47.0,29.84,South,170,0.0,0.0,69,0.00,,,0.00,,2013-04-28 03:01:00,
2013-04-27 22:11:00,57.0,47.0,29.84,South,170,0.0,0.0,69,0.00,,,0.00,,2013-04-28 03:11:00,
2013-04-27 22:21:00,56.0,47.0,29.84,South,170,0.0,0.0,71,0.00,,,0.00,,2013-04-28 03:21:00,
2013-04-27 22:22:00,55.0,47.0,29.84,South,170,0.0,0.0,74,0.00,,,0.00,,2013-04-28 03:22:00,
2013-04-27 22:33:00,55.0,47.0,29.84,South,170,0.0,0.0,73,0.00,,,0.00,,2013-04-28 03:33:00,
2013-04-27 22:43:00,55.0,47.0,29.84,South,170,0.0,0.0,73,0.00,,,0.00,,2013-04-28 03:43:00,
2013-04-27 22:53:00,55.0,47.0,29.84,South,170,0.0,0.0,74,0.00,,,0.00,,2013-04-28 03:53:00,
2013-04-27 23:02:00,55.0,47.0,29.84,South,170,0.0,0.0,74,0.00,,,0.00,,2013-04-28 04:02:00,
2013-04-27 23:13:00,55.0,47.0,29.84,South,170,0.0,0.0,74,0.00,,,0.00,,2013-04-28 04:13:00,
2013-04-27 23:32:00,54.0,47.0,29.84,South,170,0.0,3.0,78,0.00,,,0.00,,2013-04-28 04:32:00,
2013-04-27 23:43:00,54.0,47.0,29.84,South,170,0.0,3.0,78,0.00,,,0.00,,2013-04-28 04:43:00,
2013-04-27 23:53:00,53.0,46.0,29.83,South,170,0.0,2.0,78,0.00,,,0.00,,2013-04-28 04:53:00,